Simultaneous Nadir Overpasses (SNOs) Predictions

Prediction of SNOs between AQUA and NOAA-19 Satellite Orbit:

Table of predicted SNOs for the next 14.0 days since TLE Epoch: 9/3/2022
Index Date (AQUA) Time (AQUA) Lat,Lon (AQUA) SZA (AQUA ) Date (NOAA-19) Time (NOAA-19) Lat,Lon (NOAA-19) SZA (NOAA-19 ) Distance(km) Time Diff (sec)
1 09/03/2022 10:11:38 77.31, 12.34 70.19 09/03/2022 10:10:56 77.32, 12.29 70.22 2.31 42
2 09/03/2022 11:01:05 -77.37, 179.72 109.72 09/03/2022 11:02:00 -77.35, 179.66 109.75 2.29 55
3 09/05/2022 15:44:48 -77.32, 109.00 108.99 09/05/2022 15:43:53 -77.31, 109.04 108.99 1.93 55
4 09/05/2022 16:34:15 77.35, -83.48 71.07 09/05/2022 16:34:47 77.36, -83.41 71.07 2.21 32
5 09/07/2022 21:17:56 77.22,-153.88 71.72 09/07/2022 21:16:44 77.16,-154.75 71.73 22.41 72
6 09/07/2022 22:07:24 -77.32, 13.35 108.15 09/07/2022 22:07:44 -77.32, 13.25 108.15 2.52 20
7 09/10/2022 03:40:34 77.32, 110.07 72.69 09/10/2022 03:40:32 77.32, 110.10 72.68 0.99 2
8 09/12/2022 09:13:43 -77.31,-153.15 106.50 09/12/2022 09:13:27 -77.32,-153.05 106.49 2.84 16
9 09/12/2022 10:03:10 77.35, 14.34 73.56 09/12/2022 10:04:23 77.35, 14.37 73.55 0.78 73
10 09/14/2022 14:46:52 77.29, -56.34 74.32 09/14/2022 14:46:17 77.27, -56.43 74.31 3.11 35
11 09/14/2022 15:36:19 -77.34, 111.10 105.61 09/14/2022 15:37:18 -77.33, 111.10 105.64 1.25 59
12 09/16/2022 20:20:01 -77.28, 40.39 104.84 09/16/2022 20:19:11 -77.26, 40.39 104.85 2.79 50



Historial Predications of SNOs between AQUA and NOAA-19
